Location: Czernica
(51.0462°N, 17.2458°E)
Time: 05:02:32
(UTC+01:00)

ISS - Pass Details

Date: 24 January 2019
Orbit: 403 x 411 km, 51.6° (Epoch: 21 February)

Event Time Altitude Azimuth Distance (km) Brightness Sun altitude
Rises 19:17:29 0° 240° (WSW) 2,332 0.9 -26.4°
Reaches altitude 10° 19:19:35 10° 235° (SW) 1,475 -0.3 -26.7°
Enters shadow 19:20:29 17° 231° (SW) 1,121 -1.1 -26.9°
